Regional Weather Roundup
Issued by NWS Upton, NY

Current Version | Previous Version | Text Only | Print | Product List | Glossary On
Versions: 1 2 3 4 5 6 7 8 9 10 11 12 13 14 15 16 17 18 19 20 21 22 23 24 25 26 27 28 29 30
000
ASUS41 KOKX 242305
RWROKX

REGIONAL WEATHER ROUNDUP
NATIONAL WEATHER SERVICE NEW YORK NY
700 PM EDT WED AUG 24 2016

NOTE: "FAIR" INDICATES FEW OR NO CLOUDS BELOW 12,000 FEET WITH NO
SIGNIFICANT WEATHER AND/OR OBSTRUCTIONS TO VISIBILITY.

NYZ071-072-176-178-NJZ106-104-250000-
NEW YORK CITY METRO AREA

CITY           SKY/WX    TMP DP  RH WIND       PRES   REMARKS
Central Park     N/A     82  63  51 MISG        N/A
LaGuardia APRT PTCLDY    81  62  52 S14       30.16S
Kennedy INTL   PTCLDY    78  69  73 S15G23    30.18F
Newark/Liberty MOCLDY    82  63  52 S9        30.16S
Bronx Bot Gard   N/A     79  61  53 SE6       30.19F
Wall St Helipt CLEAR     82  64  54 S8        30.18S
Teterboro      CLEAR     83  60  45 S6        30.15S
$$

NYZ177-179-078>081-250000-
LONG ISLAND NEW YORK

CITY           SKY/WX    TMP DP  RH WIND       PRES   REMARKS
Farmingdale    CLEAR     77  63  61 S14       30.18F
MacArthur/ISP  PTCLDY    77  64  64 SW13      30.18F
Shirley        CLEAR     75  66  73 S10       30.20S
Riverhead      NOT AVBL
Westhampton    CLEAR     75  65  70 SW9       30.21S
Southampton      N/A     75  68  78 SW7       30.16S
Bridgehampton    N/A     73  66  78 CALM      30.19S
East Hampton   FAIR      74  66  76 SW8       30.19S
Montauk          N/A     75  66  73 S6        30.20S
$$

NYZ052-065-067-250000-
HUDSON VALLEY

CITY           SKY/WX    TMP DP  RH WIND       PRES   REMARKS
White Plains   CLEAR     78  61  55 S7        30.18S
Newburgh       PTCLDY    81  66  61 W7        30.18S
Montgomery     CLEAR     80  64  58 SW5       30.16S
Poughkeepsie   CLEAR     84  61  45 S3        30.14S
Albany         PTCLDY    82  59  45 S9        30.12F
$$

NJZ001-105-106-008-010-013-015-019>022-104-250000-
NEW JERSEY

CITY           SKY/WX    TMP DP  RH WIND       PRES   REMARKS
Newark/Liberty MOCLDY    82  63  52 S9        30.16S
Teterboro      CLEAR     83  60  45 S6        30.15S
Caldwell       CLEAR     83  60  45 CALM      30.17S
Morristown     PTCLDY    82  63  51 SW5       30.17S
Somerville     CLEAR     82  60  47 CALM      30.15F
Linden         FAIR      84  56  37 W3        30.18S
Sussex         CLEAR     79  65  62 CALM      30.18S
Abdover          N/A     75  65  70 CALM      30.18F
Trenton        CLEAR     81  59  47 SW8       30.17S
Millville      CLEAR     76  63  64 VRB5      30.21S
Atlantic City  CLEAR     78  60  53 S7        30.20S
Wrightstown    CLEAR     81  63  55 SW8       30.15S
Toms River     CLEAR     78  63  59 S6        30.19S
Belmar         CLEAR     78  63  59 S7        30.19F
$$

PAZ047>061-062-071-250000-
EASTERN PENNSYLVANIA

CITY           SKY/WX    TMP DP  RH WIND       PRES   REMARKS
Philadelphia   MOCLDY    82  62  50 SW12      30.18F
Allentown      CLEAR     81  61  50 SW7       30.16F
Scranton       CLEAR     80  61  52 VRB7      30.16F
$$

CTZ002-004>006-009-010-012-RIZ004-006-007-MAZ004-011-015-250000-
SOUTHERN NEW ENGLAND
 IN CT

CITY           SKY/WX    TMP DP  RH WIND       PRES   REMARKS
Bradley INTL   MOCLDY    82  61  48 SW8       30.16R
Hartford       CLEAR     84  60  44 S8        30.15R
Danbury        CLEAR     79  61  53 S8        30.18S
Wtrbury/Oxford NOT AVBL
Bridgeport     CLEAR     81  64  56 S13       30.17S
Meriden        CLEAR     81  59  47 S7        30.17R
New Haven      CLEAR     79  64  60 S6        30.18S
Chester        FAIR      77  63  61 CALM      30.19S
Groton         CLEAR     76  65  68 S8        30.18R
Wilimantic     CLEAR     79  59  50 S7        30.18R

 IN RI

CITY           SKY/WX    TMP DP  RH WIND       PRES   REMARKS
Providence     PTCLDY    78  60  53 SW9       30.17S
Block Island   CLEAR     74  66  76 SW9       30.21R
Westerly       CLEAR     76  63  64 SW8       30.19S
 IN MA

CITY           SKY/WX    TMP DP  RH WIND       PRES   REMARKS
Boston         CLOUDY    84  58  40 SW10G22   30.14R
Worcester      CLEAR     76  61  59 SW6       30.19S
Westfield      CLEAR     81  60  48 S8        30.15S
Provincetown   CLEAR     73  63  70 SW14      30.17S
Nantucket      CLEAR     71  67  87 SW10      30.20S
$$

ANZ330-335-338-340-345-350-353-355-250000-
COASTAL MARINE OBSERVATIONS


STATION/POSITION TIME  SKY/WX   TEMP    WIND        PRES    VSBY  WAVE
                                AIR SEA DIR/SP/G                  HT/PER
                 (UTC)          (F)     (DEG/KT/KT) (MB)    (MI)  (FT/S)
NY HARB ENTRANCE 2150            77 78  190/ 16/ 19 1022.0          2/ 3
20S FIRE ISLAND  2150            76 77  200/ 12/ 16 1022.3          2/11
GREAT SOUTH BAY  2230            76 80  220/ 12/ 16   N/A
23 SSW MONTAUK P 2150            76 75  220/ 10/ 12 1022.9          2/11
15 E BARNEGAT LI 2200               77                N/A           2/12
HUDSON CANYON    2150            77 79              1023.4          2/11
KINGS POINT      2200            79 77              1021.6
EXECUTION ROCKS  2200            80     180/ 12/ 17   N/A
CENTRAL LI SOUND 2200            78 76  150/  4/  4   N/A           0
EASTERN LI SOUND 2200            74 70  200/  6/  6   N/A
ROBBINS REEF     2200            77     160/ 17/ 19 1020.7
$$


>>>>>>>>>>>>>>>>>>>>>>>>>>>> KEY <<<<<<<<<<<<<<<<<<<<<<<<<<<
>                                                          <
>     SKY/WX - Sky Condition/Present Weather               <
>     TMP    - Temperature in Fahrenheit                   <
>     DP     - Dew Point in Fahrenheit                     <
>     RH     - Relative Humidity in Percent                <
>     WIND   - Direction (from) and Speed in MPH           <
>     PRES   - Mean Sea Level Pressure (inches of Hg)      <
>     WCI    - Wind Chill Index                            <
>     VSB    - VISIBILITY IN MILES                         <
>     HX     - HEAT INDEX                                  <
>     TC     - TEMPERATURE IN CELSIUS                      <
>     VRB    - VARIABLE WIND DIRECTION                     <
>                                                          <
>>>>>>>>>>>>>>>>>>>>>>>>>>>> KEY <<<<<<<<<<<<<<<<<<<<<<<<<<<




USA.gov is the U.S. government's official web portal to all federal, state and local government web resources and services.